EW9994 Weather Reports


time (UTC)temp
C
wind
direction
speed
KPH
gust
KPH
rain 1hr
cm
rain 24hr
cm
rain mn
cm
humidity
%
barometer
mb
20260906190407 30 41 9.7 29.0 0.00 0.00 0.00 56 1020.5
20260906184407 30 74 14.5 22.5 0.00 0.00 0.00 56 1020.1
20260906183907 30 78 19.3 25.7 0.00 0.00 0.00 56 1020.0
20260906183407 29 64 8.0 16.1 0.00 0.00 0.00 58 1020.0
20260906181407 28 40 8.0 11.3 0.00 0.00 0.00 60 1019.7
20260906180406 29 41 6.4 14.5 0.00 0.00 0.00 60 1019.6
20260906174407 28 41 9.7 14.5 0.00 0.00 0.00 62 1019.5
20260906173907 28 41 6.4 9.7 0.00 0.00 0.00 63 1019.4
20260906173407 28 41 8.0 14.5 0.00 0.00 0.00 63 1019.4
20260906171907 29 37 8.0 11.3 0.00 0.00 0.00 63 1019.4
20260906171408 30 31 9.7 14.5 0.00 0.00 0.00 63 1019.4
20260906170906 30 28 9.7 12.9 0.00 0.00 0.00 62 1019.4
20260906170406 30 28 8.0 14.5 0.00 0.00 0.00 62 1019.3
20260906163906 31 25 4.8 9.7 0.00 0.00 0.00 60 1019.3
20260906160906 32 25 3.2 8.0 0.00 0.00 0.00 57 1019.2
20260906160406 32 25 3.2 9.7 0.00 0.00 0.00 58 1019.2
20260906154906 32 23 3.2 9.7 0.00 0.00 0.00 56 1019.2
20260906154406 32 23 4.8 9.7 0.00 0.00 0.00 56 1019.2
20260906153406 32 23 4.8 11.3 0.00 0.00 0.00 56 1019.3
20260906151407 31 27 9.7 14.5 0.00 0.00 0.00 60 1019.3
20260906150906 30 23 9.7 14.5 0.00 0.00 0.00 60 1019.4
20260906150406 30 26 9.7 14.5 0.00 0.00 0.00 60 1019.4
20260906144907 31 35 9.7 16.1 0.00 0.00 0.00 60 1019.5
20260906144406 31 39 9.7 14.5 0.00 0.00 0.00 59 1019.5
20260906143406 31 46 4.8 16.1 0.00 0.00 0.00 57 1019.5
20260906141906 32 52 11.3 14.5 0.00 0.00 0.00 52 1019.5
20260906140906 33 52 8.0 14.5 0.00 0.00 0.00 50 1019.5
20260906140407 33 53 9.7 14.5 0.00 0.00 0.00 47 1019.4
20260906134906 35 60 9.7 12.9 0.00 0.00 0.00 44 1019.5
20260906134407 35 85 3.2 12.9 0.00 0.00 0.00 45 1019.5
20260906124906 34 257 6.4 12.9 0.00 0.00 0.00 47 1019.8
20260906123406 34 252 1.6 9.7 0.00 0.00 0.00 47 1019.8
20260906121406 33 252 4.8 11.3 0.00 0.00 0.00 49 1019.9
20260906120907 33 214 1.6 11.3 0.00 0.00 0.00 49 1019.9
20260906114407 32 218 3.2 4.8 0.00 0.00 0.00 51 1020.0
20260906113906 32 205 4.8 8.0 0.00 0.00 0.00 52 1020.1
20260906113406 32 247 8.0 11.3 0.00 0.00 0.00 51 1020.1
20260906110906 32 215 3.2 4.8 0.00 0.00 0.00 55 1020.3
20260906104907 31 238 4.8 8.0 0.00 0.00 0.00 56 1020.4
20260906104406 31 229 4.8 9.7 0.00 0.00 0.00 55 1020.5
20260906103407 31 248 3.2 9.7 0.00 0.00 0.00 58 1020.5
20260906101906 30 201 4.8 8.0 0.00 0.00 0.00 58 1020.7
20260906100906 30 177 4.8 8.0 0.00 0.00 0.00 59 1020.7
20260906100406 30 188 3.2 9.7 0.00 0.00 0.00 61 1020.7
20260906093407 28 198 4.8 8.0 0.00 0.00 0.00 64 1021.0
20260906090406 27 159 1.6 4.8 0.00 0.00 0.00 67 1021.1
20260906084906 26 158 4.8 4.8 0.00 0.00 0.00 71 1021.1
20260906084406 26 124 4.8 8.0 0.00 0.00 0.00 69 1021.1
20260906083906 26 29 3.2 8.0 0.00 0.00 0.00 72 1021.2
20260906081906 25 29 0.0 4.8 0.00 0.00 0.00 74 1021.2
20260906081406 25 27 0.0 0.0 0.00 0.00 0.00 77 1021.2
20260906080906 25 27 0.0 0.0 0.00 0.00 0.00 75 1021.2
20260906074906 24 25 0.0 0.0 0.00 0.00 0.00 78 1021.1
20260906073907 24 26 0.0 0.0 0.00 0.00 0.00 78 1021.0
20260906064406 21 25 0.0 0.0 0.00 0.00 0.00 83 1020.6
20260906061906 20 25 0.0 0.0 0.00 0.00 0.00 80 1020.4
20260906061406 20 26 0.0 3.2 0.00 0.00 0.00 81 1020.4
20260906060406 20 26 1.6 4.8 0.00 0.00 0.00 81 1020.4
20260906053906 20 26 4.8 8.0 0.00 0.00 0.00 81 1020.3
20260906051906 20 25 3.2 8.0 0.00 0.00 0.00 82 1020.2
20260906051406 20 26 1.6 4.8 0.00 0.00 0.00 82 1020.2
20260906050906 20 26 4.8 8.0 0.00 0.00 0.00 82 1020.2
20260906050406 19 25 4.8 11.3 0.00 0.00 0.00 82 1020.2
20260906044906 19 25 4.8 8.0 0.00 0.00 0.00 82 1020.2
20260906040906 20 26 3.2 8.0 0.00 0.00 0.00 82 1020.0
20260906040406 20 26 4.8 8.0 0.00 0.00 0.00 82 1020.0
20260906034406 20 25 3.2 8.0 0.00 0.00 0.00 82 1019.8
20260906033906 20 25 1.6 4.8 0.00 0.00 0.00 82 1019.8
20260906031406 20 25 6.4 9.7 0.00 0.00 0.00 82 1019.6
20260906030906 20 25 4.8 9.7 0.00 0.00 0.00 82 1019.6
20260906030406 20 26 4.8 9.7 0.00 0.00 0.00 83 1019.6
20260906024906 20 25 4.8 8.0 0.00 0.00 0.00 83 1019.6
20260906024406 20 25 4.8 9.7 0.00 0.00 0.00 83 1019.6
20260906021406 20 26 4.8 9.7 0.00 0.00 0.00 83 1019.6
20260906020906 20 25 3.2 4.8 0.00 0.00 0.00 83 1019.6
20260906020405 20 25 3.2 4.8 0.00 0.00 0.00 83 1019.6
20260906011406 21 26 4.8 8.0 0.00 0.00 0.00 83 1019.6
20260906010406 21 25 4.8 8.0 0.00 0.00 0.00 83 1019.5
20260906004905 21 26 4.8 4.8 0.00 0.00 0.00 83 1019.4
20260906004405 21 26 3.2 4.8 0.00 0.00 0.00 83 1019.4
20260906003406 21 26 3.2 9.7 0.00 0.00 0.00 83 1019.4
20260906001406 21 26 1.6 8.0 0.00 0.00 0.00 83 1019.5
20260906000905 21 26 6.4 9.7 0.00 0.00 0.00 83 1019.5
20260905230905 21 26 3.2 4.8 0.00 0.00 0.00 82 1019.7
20260905230405 21 26 3.2 11.3 0.00 0.00 0.00 82 1019.6
20260905221905 22 25 4.8 8.0 0.00 0.00 0.00 81 1019.4
20260905221405 22 25 3.2 8.0 0.00 0.00 0.00 81 1019.5
20260905220906 22 25 3.2 4.8 0.00 0.00 0.00 81 1019.4
20260905214905 22 26 4.8 8.0 0.00 0.00 0.00 80 1019.3
20260905213405 22 26 6.4 12.9 0.00 0.00 0.00 80 1019.3
20260905211907 22 26 9.7 12.9 0.00 0.00 0.00 80 1019.2
20260905211405 22 25 6.4 12.9 0.00 0.00 0.00 80 1019.2
20260905210905 22 26 11.3 14.5 0.00 0.00 0.00 80 1019.2
20260905204905 22 27 9.7 14.5 0.00 0.00 0.00 79 1019.1
20260905203905 22 27 8.0 11.3 0.00 0.00 0.00 79 1019.0
20260905203408 22 27 8.0 12.9 0.00 0.00 0.00 79 1019.0
20260905201905 23 29 11.3 14.5 0.00 0.00 0.00 79 1018.8
20260905201405 23 29 9.7 12.9 0.00 0.00 0.00 79 1018.9
20260905194907 23 30 4.8 4.8 0.00 0.00 0.00 79 1018.7
20260905194407 23 30 3.2 4.8 0.00 0.00 0.00 79 1018.7
20260905193907 23 30 3.2 4.8 0.00 0.00 0.00 79 1018.7
20260905190906 24 30 0.0 1.6 0.00 0.00 0.00 78 1018.2